Weather History for OTBD - August, 2013

Change the Weather History Date:

Saturday, August 24, 2013

  Actual Average Record
Temperature  
Mean Temperature 100 °F -  
Max Temperature 108 °F 102 °F 108 °F (2013)
Min Temperature 91 °F 81 °F 86 °F (1997)
Cooling Degree Days 34    
Growing Degree Days 50 (Base 50)    
Moisture  
Dew Point 72 °F    
Average Humidity 46    
Maximum Humidity 75    
Minimum Humidity 22    
Precipitation  
Precipitation 0.00 in 0.00 in - ()
Sea Level Pressure  
Sea Level Pressure 29.57 in    
Wind  
Wind Speed 7 mph ()    
Max Wind Speed 14 mph    
Max Gust Speed -    
Visibility 8.0 miles    
Events      
Averages and records for this station are not official NWS values.
T = Trace of Precipitation, MM = Missing Value Source: Averaged Metar Reports

Daily Weather History Graph

Daily Weather History Graph

Search for Another Location

Airport or City:

Trip Planner

Search our weather history database for the weather conditions in past years. The results will help you decide how hot, cold, wet, or windy it might be!

Date:

Astronomy

Aug. 24, 2013 Rise Set
Actual Time 5:11 AM AST 6:00 PM AST
Civil Twilight 4:47 AM AST 6:24 PM AST
Nautical Twilight 4:19 AM AST 6:51 PM AST
Astronomical Twilight 3:51 AM AST 7:20 PM AST
Moon 8:11 PM AST (8/24) 8:17 AM AST (8/24)
Length of Visible Light 13h 36m
Length of Day
12h 49m
Waning Gibbous, 86% of the Moon is Illuminated
Aug 24
Waning Gibbous
Aug 28
Last Quarter
Sep 5
New
Sep 12
First Quarter
Sep 19
Full

Hourly Weather History & Observations

Time (AST) Temp. Heat Index Dew Point Humidity Pressure Visibility Wind Dir Wind Speed Gust Speed Precip Events Conditions
12:00 AM 96.8 °F 100.7 °F 66.2 °F 37% 29.56 in - NW 5.8 mph - N/A   Clear
12:30 AM 95.0 °F 99.5 °F 68.0 °F 41% 29.56 in - NW 5.8 mph - N/A   Clear
1:00 AM 95.0 °F 99.5 °F 68.0 °F 41% 29.56 in - NW 5.8 mph - N/A   Clear
1:30 AM 95.0 °F 101.3 °F 69.8 °F 44% 29.56 in - WNW 5.8 mph - N/A   Clear
2:00 AM 95.0 °F 103.2 °F 71.6 °F 47% 29.56 in - Variable 2.3 mph - N/A   Clear
3:00 AM 93.2 °F 102.4 °F 73.4 °F 52% 29.56 in - West 4.6 mph - N/A   Clear
3:30 AM 91.4 °F 102.5 °F 75.2 °F 59% 29.56 in - West 3.5 mph - N/A   Clear
4:00 AM 91.4 °F 102.5 °F 75.2 °F 59% 29.56 in - West 5.8 mph - N/A   Clear
4:30 AM 91.4 °F 102.5 °F 75.2 °F 59% 29.56 in - West 3.5 mph - N/A   Clear
5:00 AM 91.4 °F 102.5 °F 75.2 °F 59% 29.56 in - West 5.8 mph - N/A   Clear
5:30 AM 91.4 °F 102.5 °F 75.2 °F 59% 29.59 in - West 3.5 mph - N/A   Clear
6:00 AM 91.4 °F 102.5 °F 75.2 °F 59% 29.59 in - West 4.6 mph - N/A   Clear
6:30 AM 93.2 °F 100.5 °F 71.6 °F 49% 29.59 in - West 4.6 mph - N/A   Clear
7:00 AM 95.0 °F 101.3 °F 69.8 °F 44% 29.59 in - West 3.5 mph - N/A   Clear
7:30 AM 98.6 °F 100.0 °F 62.6 °F 30% 29.59 in - NW 8.1 mph - N/A   Clear
8:00 AM 100.4 °F 101.3 °F 60.8 °F 27% 29.62 in - NW 8.1 mph - N/A   Clear
8:30 AM 100.4 °F 102.4 °F 62.6 °F 29% 29.62 in - NW 8.1 mph - N/A   Clear
9:00 AM 102.2 °F 104.2 °F 62.6 °F 27% 29.62 in - NW 8.1 mph - N/A   Clear
9:30 AM 104.0 °F 107.4 °F 64.4 °F 27% 29.59 in - NNW 8.1 mph - N/A   Clear
10:00 AM 104.0 °F 107.4 °F 64.4 °F 27% 29.59 in - WNW 8.1 mph - N/A   Clear
10:30 AM 105.8 °F 106.8 °F 59.0 °F 22% 29.59 in - North 9.2 mph - N/A   Clear
11:00 AM 105.8 °F 107.5 °F 60.8 °F 23% 29.59 in - North 11.5 mph - N/A   Clear
11:30 AM 107.6 °F 110.6 °F 62.6 °F 23% 29.56 in - North 11.5 mph - N/A   Clear
12:00 PM 107.6 °F 112.3 °F 64.4 °F 25% 29.56 in - North 13.8 mph - N/A   Clear
12:30 PM 105.8 °F 116.1 °F 71.6 °F 33% 29.56 in - North 12.7 mph - N/A   Clear
1:00 PM 105.8 °F 113.2 °F 68.0 °F 30% 29.56 in - North 12.7 mph - N/A   Clear
1:30 PM 105.8 °F 114.2 °F 69.8 °F 31% 29.56 in - North 12.7 mph - N/A   Clear
2:00 PM 105.8 °F 116.1 °F 71.6 °F 33% 29.53 in - North 12.7 mph - N/A   Clear
2:30 PM 105.8 °F 114.2 °F 69.8 °F 31% 29.53 in - North 13.8 mph - N/A   Clear
3:00 PM 104 °F - 72 °F 26% 29.55 in 9 mi NNE 12.7 mph - -  
3:00 PM 104.0 °F 114.0 °F 71.6 °F 35% 29.53 in - NNE 12.7 mph - N/A   Clear
4:00 PM 102.2 °F 119.3 °F 77.0 °F 45% 29.53 in - North 12.7 mph - N/A   Clear
5:00 PM 98.6 °F 117.2 °F 78.8 °F 53% 29.53 in - NNE 12.7 mph - N/A   Clear
5:30 PM 96.8 °F 118.6 °F 80.6 °F 60% 29.53 in - North 11.5 mph - N/A   Clear
6:00 PM 96.8 °F 118.6 °F 80.6 °F 60% 29.53 in - North 9.2 mph - N/A   Clear
7:00 PM 95.0 °F 112.2 °F 78.8 °F 59% 29.56 in - North 9.2 mph - N/A   Clear
8:00 PM 95.0 °F 112.2 °F 78.8 °F 59% 29.56 in - NNE 8.1 mph - N/A   Clear
9:00 PM 93 °F - 80 °F 59% 29.60 in 7 mi NNE 9.2 mph - -  
9:00 PM 93.2 °F 113.6 °F 80.6 °F 67% 29.59 in - NNE 9.2 mph - N/A   Clear
9:30 PM 93.2 °F 110.2 °F 78.8 °F 63% 29.59 in - North 10.4 mph - N/A   Clear
10:00 PM 93.2 °F 113.6 °F 80.6 °F 67% 29.59 in - NNE 8.1 mph - N/A   Clear
10:30 PM 91.4 °F 114.3 °F 82.4 °F 75% 29.56 in - NNE 4.6 mph - N/A   Clear
11:00 PM 91.4 °F 114.3 °F 82.4 °F 75% 29.56 in - NE 4.6 mph - N/A   Clear
11:30 PM 91.4 °F 114.3 °F 82.4 °F 75% 29.56 in - NNE 4.6 mph - N/A   Clear